Regional Weather Roundup
Issued by NWS

Home | Current Version | Previous Version | Graphics & Text | Print | Product List | Glossary On
Versions: 1 2 3 4 5 6 7 8 9 10 11 12 13 14 15 16 17 18 19 20 21 22 23 24 25 26 27 28 29 30 31 32 33 34 35 36 37 38 39 40 41 42 43 44 45 46 47 48 49 50
000
ASUS43 KOAX 191302
RWRNE

WEATHER ROUNDUP FOR NEBRASKA
NATIONAL WEATHER SERVICE OMAHA NE
700 AM CST MON FEB 19 2018

NOTES: SATELLITE DATA IS BEING USED TO AUGMENT CLOUD COVER ABOVE
       12000 FEET.
       "FAIR" INDICATES FEW OR NO CLOUDS BELOW 12,000 FEET WITH NO
       SIGNIFICANT WEATHER AND/OR OBSTRUCTIONS TO VISIBILITY.


NEZ001>004-019>022-054>056-191400-
NEBRASKA PANHANDLE

CITY           SKY/WX    TMP DP  RH WIND       PRES   REMARKS
SCOTTSBLUFF    LGT SNOW   6   0  76 NE10      29.83S WCI  -9
ALLIANCE       CLOUDY     4   1  88 N14       29.82S WCI -14
CHADRON        LGT SNOW   3  -2  79 NE10      29.92S WCI -12
GORDON         CLOUDY     4  -2  75 NE20      29.86F WCI -17
KIMBALL        LGT SNOW   6   2  84 N12       29.73F WCI  -9
SIDNEY         LGT SNOW   7   4  87 N16       29.79R FOG     WCI -11
$$

NEZ057>060-069>072-079>082-191400-
SOUTHWEST NEBRASKA

CITY           SKY/WX    TMP DP  RH WIND       PRES   REMARKS
NORTH PLATTE   LGT SNOW  13   8  81 N13       29.82S WCI  -2
IMPERIAL       FLURRIES  13  10  88 N20       29.83R WCI  -5
LEXINGTON      FLURRIES  16  11  81 N20       29.81F WCI  -1
MCCOOK         CLOUDY    16  11  80 N20       29.82R WCI  -1
OGALLALA       FLURRIES  14   9  81 N16       29.84R WCI  -2
$$

NEZ005>010-023>029-035>040-094-191400-
NORTH CENTRAL NEBRASKA

CITY           SKY/WX    TMP DP  RH WIND       PRES   REMARKS
VALENTINE      LGT SNOW   8   2  76 N22       29.91F WCI -12
AINSWORTH      LGT SNOW   9   6  89 N24       29.89F WCI -12
BROKEN BOW     FLURRIES  13   8  81 N23       29.82R WCI  -6
O`NEILL        MIX PCPN  12   9  89 N22G30    29.86R WCI  -7
ORD            LGT SNOW  13   9  84 N23G31    29.83R FOG     WCI  -6
THEDFORD         N/A     10   6  84 N17G24    29.86R WCI  -8
$$

NEZ041-046>049-061>064-073>077-083>087-191400-
SOUTH CENTRAL NEBRASKA

CITY           SKY/WX    TMP DP  RH WIND       PRES   REMARKS
GRAND ISLAND   FLURRIES  16  12  84 N22G33    29.81R WCI  -2
AURORA         CLOUDY    17  14  86 N21G26    29.80R WCI   0
HASTINGS       CLOUDY    17  13  84 N18G29    29.81R WCI   1
HEBRON         CLOUDY    22  20  91 N17G23    29.78S FOG     WCI   8
HOLDREGE       FLURRIES  16  13  90 N20G26    29.79S WCI  -1
KEARNEY        FLURRIES  15  12  88 MISG      29.80S
YORK           PTCLDY    19  19 100 N18G26    29.78R WCI   4
$$

NEZ011>018-030>034-042>045-191400-
NORTHEAST NEBRASKA

CITY           SKY/WX    TMP DP  RH WIND       PRES   REMARKS
NORFOLK        FLURRIES  17  14  88 N18G36    29.80S WCI   1
ALBION         LGT SNOW  16  11  83 N14G21    29.82R WCI   1
BLAIR          CLOUDY    26  24  94 N12G21    29.71R WCI  15
COLUMBUS       CLOUDY    20  17  88 N21G30    29.80R WCI   4
FREMONT        CLOUDY    23  22  93 N12G20    29.77R WCI  12
TEKAMAH        FRZ RAIN  23  21  92 N29G38    29.77R WCI   6
WAYNE          CLOUDY    18  17  96 N14G21    29.81R WCI   4
$$

NEZ050>053-065>068-078-088>093-191400-
SOUTHEAST NEBRASKA

CITY           SKY/WX    TMP DP  RH WIND       PRES   REMARKS
LINCOLN        FLURRIES  24  21  88 N21G35    29.77R WCI   9
OMAHA EPPLEY   FRZ DRZL  28  26  92 N18G29    29.72R WCI  15
BEATRICE       CLOUDY    27  26  96 N21G28    29.73R FOG     WCI  13
FALLS CITY     CLOUDY    33  32  96 NW18G29   29.64R WCI  22
NEBRASKA CITY  CLOUDY    30  30 100 N18G26    29.67R FOG     WCI  18
PLATTSMOUTH    CLOUDY    29  29 100 NW16G23   29.69R FOG     WCI  17
$$

NEZ044-045-051>053-067-191400-
OMAHA AREA

CITY           SKY/WX    TMP DP  RH WIND       PRES   REMARKS
OMAHA EPPLEY   FRZ DRZL  28  26  92 N18G29    29.72R WCI  15
BLAIR          CLOUDY    26  24  94 N12G21    29.71R WCI  15
FREMONT        CLOUDY    23  22  93 N12G20    29.77R WCI  12
MILLARD        CLOUDY    28  25  90 NW10G23   29.75R FOG     WCI  18
OFFUTT AFB     FRZ DRZL  29  27  93 N16       29.71R WCI  17
PLATTSMOUTH    CLOUDY    29  29 100 NW16G23   29.69R FOG     WCI  17
WAHOO          CLOUDY    24  21  88 MISG      29.77R
$$



USA.gov is the U.S. government's official web portal to all federal, state and local government web resources and services.